CYGFM02 (41886 NORAD) Tracking and Keplerian Element Data

This shows tracking and keplerian element data for the satellite.

Feedback or suggestion? Click here.




ElementValue
Catalog41886
NameCYGFM02
Epoch Orbit45181
Epoch Day34.80110011
Epoch Year2025
RAAN248.3889
Inclination34.9444
Eccentricity0.0009209
Argument of Perigee174.9442
Mean Anonmoly185.137
Mean Motion15.37986136
Decay Rate0.00049739
L11 41886U 16078C 25034.80110011 .00049739 00000+0 12859-2 0 9993
L22 41886 34.9444 248.3889 0009209 174.9442 185.1370 15.37986136451813



Live tracking and technical data element details for CYGFM02 (NORAD 41886). CYGFM02 can be tracked NOW for your location showing map with azimuth and elevation plus other details from your city location.







IsCatalogInMostPopularTable: catalog: 41886, numindb: 739
Update: records affected: 1



GetName: 41886 CYGFM02

Hit Count: updated at: Sat, 17 May 2025 10:05:40 GMT